Find INTELSAT 702

NORAD ID: 23124 Int'l Des: 1994-034 Owner: INTEL Country: I-INT operational
HEOCIRCULAR

リアルタイム位置

3D地球を読み込み中...

INTELSAT 702について

説明を読み込み中...

次回通過

Passes for default location (London). Set your location on the main map for personalized predictions.

高度履歴

Loading altitude history...

軌道要素

1 23124U 94034A 26131.90147315 -.00000001 00000-0 00000-0 0 9997
2 23124 10.9797 45.1245 0012323 26.5853 156.1699 0.98939337130527
Epoch: May 11, 2026 • Age: 20 hours

現在のステータス

高度 36172.3 km
速度 3.06 km/s
衛星直下点 8.79°N, 30.22°E
打ち上げ日 Jun 17, 1994
運用期間 31.9 years
タイプ communications

技術仕様

分類 Payload
質量 3695.00 kg
乾燥質量 1500.00 kg
総質量 3695.00 kg
長さ 4.20 m
直径 2.50 m
スパン 21.80 m
形状 Box + 2 Pan
製造者 LOR
バスタイプ FS-1300
フェーズステータス Renamed
所有者/国 INTEL/I-INT

Most Searched